Three Rivers, MI

10:22 PM EST on December 04, 2016 (GMT -0500)
Three Rivers Municipal-Haines

Weather History for KHAI - August, 2013

Change the Weather History Date:

Monday, August 12, 2013

  Actual Average Record
Temperature  
Mean Temperature 72 °F -  
Max Temperature 80 °F 79 °F 92 °F (2016)
Min Temperature 64 °F 55 °F 41 °F (1967)
Cooling Degree Days 7    
Growing Degree Days 22 (Base 50)    
Moisture  
Dew Point 64 °F    
Average Humidity 83    
Maximum Humidity 94    
Minimum Humidity 63    
Precipitation  
Precipitation 0.00 in - - ()
Sea Level Pressure  
Sea Level Pressure 29.98 in    
Wind  
Wind Speed 2 mph (SW)    
Max Wind Speed 10 mph    
Max Gust Speed 17 mph    
Visibility 9 miles    
Events Rain    
Averages and records for this station are not official NWS values.
T = Trace of Precipitation, MM = Missing Value Source: NWS Daily Summary

Daily Weather History Graph

Daily Weather History Graph

Search for Another Location

Airport or City:

Trip Planner

Search our weather history database for the weather conditions in past years. The results will help you decide how hot, cold, wet, or windy it might be!

Date:

Astronomy

Aug. 12, 2013 Rise Set
Actual Time 6:47 AM EDT 8:46 PM EDT
Civil Twilight 6:17 AM EDT 9:16 PM EDT
Nautical Twilight 5:39 AM EDT 9:53 PM EDT
Astronomical Twilight 4:59 AM EDT 10:33 PM EDT
Moon 12:44 PM EDT (8/12) 11:31 PM EDT (8/12)
Length of Visible Light 14h 59m
Length of Day
13h 59m
Waxing Crescent, 31% of the Moon is Illuminated
Aug 12
Waxing Crescent
Aug 14
First Quarter
Aug 20
Full
Aug 28
Last Quarter
Sep 5
New

Hourly Weather History & Observations

Time (EDT) Temp. Heat Index Dew Point Humidity Pressure Visibility Wind Dir Wind Speed Gust Speed Precip Events Conditions
12:13 AM 64.4 °F - 60.4 °F 87% 30.08 in 10.0 mi Calm Calm - N/A   Clear
12:34 AM 64.0 °F - 60.8 °F 89% 30.08 in 10.0 mi Calm Calm - N/A   Mostly Cloudy
12:53 AM 64.6 °F - 61.3 °F 89% 30.08 in 10.0 mi Calm Calm - N/A   Mostly Cloudy
1:13 AM 64.9 °F - 61.2 °F 88% 30.07 in 10.0 mi Calm Calm - N/A   Scattered Clouds
1:34 AM 64.4 °F - 60.8 °F 88% 30.07 in 10.0 mi South 3.5 mph - N/A   Clear
1:53 AM 64.4 °F - 59.9 °F 85% 30.07 in 10.0 mi South 3.5 mph - N/A   Clear
2:14 AM 64.4 °F - 59.7 °F 85% 30.06 in 10.0 mi Calm Calm - N/A   Clear
2:34 AM 64.9 °F - 59.9 °F 84% 30.06 in 10.0 mi Calm Calm - N/A   Scattered Clouds
2:53 AM 64.8 °F - 60.6 °F 86% 30.06 in 10.0 mi Calm Calm - N/A   Mostly Cloudy
3:14 AM 64.9 °F - 61.2 °F 88% 30.05 in 10.0 mi Calm Calm - N/A   Overcast
3:33 AM 65.1 °F - 61.2 °F 87% 30.05 in 10.0 mi Calm Calm - N/A   Mostly Cloudy
3:53 AM 65.5 °F - 61.7 °F 88% 30.05 in 10.0 mi SSW 3.5 mph - N/A   Overcast
4:14 AM 65.8 °F - 61.9 °F 87% 30.05 in 10.0 mi North 6.9 mph - N/A   Overcast
4:33 AM 66.2 °F - 61.5 °F 85% 30.05 in 10.0 mi Calm Calm - N/A   Overcast
4:53 AM 66.4 °F - 61.7 °F 85% 30.04 in 10.0 mi Calm Calm - N/A   Overcast
5:14 AM 66.2 °F - 62.1 °F 86% 30.04 in 10.0 mi Calm Calm - N/A   Overcast
5:33 AM 66.4 °F - 62.4 °F 87% 30.04 in 10.0 mi Calm Calm - N/A   Overcast
5:53 AM 65.8 °F - 61.7 °F 86% 30.04 in 10.0 mi SSW 3.5 mph - N/A   Mostly Cloudy
6:14 AM 65.5 °F - 61.7 °F 88% 30.04 in 10.0 mi Calm Calm - N/A   Mostly Cloudy
6:33 AM 65.3 °F - 61.7 °F 88% 30.04 in 10.0 mi SSW 3.5 mph - N/A   Overcast
6:53 AM 65.3 °F - 61.7 °F 88% 30.03 in 10.0 mi SSW 4.6 mph - N/A   Mostly Cloudy
7:14 AM 65.3 °F - 61.7 °F 88% 30.04 in 10.0 mi Calm Calm - N/A   Mostly Cloudy
7:33 AM 66.2 °F - 61.7 °F 85% 30.04 in 10.0 mi Calm Calm - N/A   Overcast
7:54 AM 66.2 °F - 62.1 °F 86% 30.05 in 10.0 mi Calm Calm - N/A   Overcast
8:13 AM 66.6 °F - 62.1 °F 85% 30.04 in 10.0 mi Calm Calm - N/A   Overcast
8:33 AM 67.1 °F - 62.2 °F 84% 30.03 in 10.0 mi ENE 3.5 mph - N/A   Overcast
8:54 AM 67.3 °F - 63.1 °F 87% 30.03 in 10.0 mi East 4.6 mph - N/A   Mostly Cloudy
9:13 AM 67.3 °F - 63.5 °F 88% 30.03 in 10.0 mi Calm Calm - N/A Rain Light Rain
9:33 AM 66.7 °F - 63.0 °F 88% 30.03 in 7.0 mi ESE 4.6 mph - N/A Rain Rain
9:54 AM 66.6 °F - 63.7 °F 90% 30.02 in 7.0 mi East 5.8 mph - N/A Rain Light Rain
10:13 AM 67.1 °F - 63.7 °F 89% 30.02 in 10.0 mi ESE 5.8 mph - N/A   Mostly Cloudy
10:33 AM 68.0 °F - 64.6 °F 89% 30.02 in 10.0 mi ESE 5.8 mph - N/A   Mostly Cloudy
10:54 AM 68.9 °F - 64.8 °F 87% 30.02 in 10.0 mi East 3.5 mph - N/A   Overcast
11:13 AM 68.9 °F - 64.8 °F 87% 30.02 in 10.0 mi East 3.5 mph - N/A   Overcast
11:33 AM 69.3 °F - 65.3 °F 87% 30.02 in 10.0 mi SE 4.6 mph - N/A   Overcast
11:54 AM 69.8 °F - 65.3 °F 86% 30.01 in 10.0 mi SSE 4.6 mph - N/A   Overcast
12:13 PM 70.2 °F - 65.5 °F 85% 30.00 in 10.0 mi Calm Calm - N/A   Overcast
12:34 PM 70.3 °F - 64.9 °F 83% 30.01 in 10.0 mi SE 4.6 mph - N/A   Overcast
12:53 PM 71.4 °F - 65.1 °F 80% 30.00 in 10.0 mi Calm Calm - N/A   Overcast
1:13 PM 72.0 °F - 65.3 °F 79% 29.99 in 10.0 mi Calm Calm - N/A   Overcast
1:34 PM 72.7 °F - 65.5 °F 78% 29.98 in 10.0 mi Calm Calm - N/A   Overcast
1:53 PM 74.8 °F - 66.7 °F 76% 29.98 in 10.0 mi Calm Calm - N/A   Mostly Cloudy
2:13 PM 76.3 °F - 66.9 °F 73% 29.97 in 10.0 mi East 3.5 mph - N/A   Scattered Clouds
2:34 PM 76.8 °F - 66.9 °F 71% 29.96 in 10.0 mi Calm Calm - N/A   Scattered Clouds
2:53 PM 77.4 °F - 67.3 °F 71% 29.95 in 10.0 mi Calm Calm - N/A   Mostly Cloudy
3:13 PM 78.4 °F - 66.9 °F 68% 29.95 in 10.0 mi WSW 3.5 mph - N/A   Scattered Clouds
3:34 PM 78.6 °F - 66.2 °F 66% 29.94 in 10.0 mi Calm Calm - N/A   Mostly Cloudy
3:53 PM 79.0 °F - 66.6 °F 66% 29.93 in 10.0 mi Calm Calm - N/A   Overcast
4:13 PM 79.3 °F - 66.4 °F 64% 29.92 in 10.0 mi Calm Calm - N/A   Mostly Cloudy
4:34 PM 80.2 °F 82.5 °F 66.4 °F 63% 29.91 in 10.0 mi Calm Calm - N/A   Scattered Clouds
4:53 PM 80.6 °F 82.9 °F 66.7 °F 63% 29.91 in 10.0 mi West 8.1 mph - N/A   Clear
5:14 PM 79.2 °F - 66.4 °F 65% 29.90 in 10.0 mi SW 5.8 mph - N/A   Clear
5:34 PM 79.2 °F - 66.0 °F 64% 29.90 in 10.0 mi SW 6.9 mph - N/A   Scattered Clouds
5:53 PM 79.2 °F - 66.0 °F 64% 29.89 in 10.0 mi SW 6.9 mph - N/A   Scattered Clouds
6:14 PM 78.3 °F - 65.8 °F 65% 29.88 in 10.0 mi SW 3.5 mph - N/A   Scattered Clouds
6:33 PM 77.4 °F - 66.2 °F 68% 29.88 in 10.0 mi SW 3.5 mph - N/A   Scattered Clouds
6:53 PM 75.4 °F - 67.5 °F 76% 29.88 in 10.0 mi WNW 8.1 mph - N/A Rain Light Rain
7:14 PM 70.0 °F - 66.2 °F 88% 29.89 in 3.0 mi NNW 9.2 mph - N/A Rain Heavy Rain
7:33 PM 69.1 °F - 66.4 °F 91% 29.88 in 7.0 mi NNW 4.6 mph - N/A   Mostly Cloudy
7:53 PM 68.9 °F - 66.2 °F 91% 29.87 in 10.0 mi Calm Calm - N/A   Scattered Clouds
8:13 PM 68.9 °F - 66.2 °F 91% 29.87 in 7.0 mi Calm Calm - N/A   Mostly Cloudy
8:33 PM 68.9 °F - 66.4 °F 92% 29.91 in 7.0 mi West 10.4 mph 17.3 mph N/A Rain Heavy Rain
8:54 PM 67.1 °F - 63.9 °F 89% 29.89 in 5.0 mi SE 4.6 mph - N/A Rain Rain
9:13 PM 66.9 °F - 64.4 °F 92% 29.89 in 10.0 mi Calm Calm - N/A   Overcast
9:33 PM 66.6 °F - 64.4 °F 93% 29.89 in 10.0 mi West 3.5 mph - N/A   Overcast
9:54 PM 66.2 °F - 64.0 °F 93% 29.90 in 10.0 mi NW 3.5 mph - N/A   Mostly Cloudy
10:13 PM 65.3 °F - 63.3 °F 93% 29.90 in 10.0 mi WSW 3.5 mph - N/A   Scattered Clouds
10:34 PM 65.1 °F - 63.0 °F 93% 29.91 in 10.0 mi NW 3.5 mph - N/A   Clear
10:53 PM 64.4 °F - 62.6 °F 94% 29.90 in 7.0 mi WNW 3.5 mph - N/A   Clear
11:13 PM 64.6 °F - 62.8 °F 94% 29.90 in 7.0 mi Calm Calm - N/A   Clear
11:34 PM 64.6 °F - 62.8 °F 94% 29.91 in 5.0 mi NNW 4.6 mph - N/A   Scattered Clouds
11:53 PM 65.7 °F - 64.0 °F 94% 29.91 in 0.8 mi NW 4.6 mph - N/A   Overcast